Location: Marcé
(47.5801°N, 0.3280°W)
Time: 09:33:56
(UTC+01:00)

Explorer 7 - Pass Details

Date: 03 December 2021
Orbit: 483 x 674 km, 50.3° (Epoch: 24 January)

Event Time Altitude Azimuth Distance (km) Brightness Sun altitude
Rises 12:51:31 0° 289° (WNW) 2,615 10.1 20.3°
Reaches altitude 10° 12:53:54 10° 279° (W) 1,704 9.3 20.2°
Maximum altitude 12:57:18 31° 216° (SW) 887 9.0 20.2°
Drops below altitude 10° 13:00:37 10° 153° (SSE) 1,659 10.5 20.2°
Sets 13:02:55 0° 143° (SE) 2,532 11.0 20.2°
